Voltar ao catálogo

STARLINK-32948

AtivoComunicaçõesVLEO
NORAD 63123·PAYLOAD·🇺🇸 United States

Lançado Feb 27, 2025 de Cape Canaveral Space Force Station

Loading…

Próximas Passagens (próximas 24 horas)

TLE

AtualizadoSource: CelesTrak SupGP

Época: Sep 15, 2026, 03:16 UTC

1 63123C 25039V   26258.13659722  .00004836  00000+0  17510-3 0  2587
2 63123  43.0026  22.8556 0001794 268.1861 339.8285 15.27583332    11

Acompanhe STARLINK-32948 em tempo real com AllMySat

Download on the App Store